Volver al catálogo

H-2A R/B

ActivoHEO
NORAD 42966·ROCKET BODY·🇯🇵 Japan

Lanzado Oct 9, 2017 desde Tanegashima Space Center

Loading…

Próximos Pases (próximas 24 horas)

TLE

ActualizadoSource: Space-Track

Época: Sep 14, 2026, 03:38 UTC

1 42966U 17062B   26257.15180112  .00003930  00000-0  11301-2 0  9997
2 42966  31.4602 268.5528 7142213 219.0357  57.5383  2.45409051 77025

Sigue H-2A R/B en tiempo real con AllMySat

Download on the App Store